Back to catalog

STARLINK-31794

AliveCommunicationsVLEO
NORAD 59803·PAYLOAD·🇺🇸 United States

Launched May 18, 2024 from Cape Canaveral Space Force Station

Loading…

Next Passes (next 24 hours)

TLE

FreshSource: CelesTrak SupGP

Epoch: Sep 14, 2026, 22:25 UTC

1 59803C 24093X   26257.93451389  .00014761  00000+0  53457-3 0  2579
2 59803  42.9995 220.4292 0001098 261.1548 131.2822 15.27575124    10

Track STARLINK-31794 in real time with AllMySat

Download on the App Store